BEL5LY EBBR-LSZH

Flight info

Callsign BEL5LY
Flight time 0h 49m
Altitude 33000
Route ROUSY DCT GTQ DCT BAMEV DCT BLM
Aircraft A319/M-SDE3FGHIRWY/LB1

Departure

Time 2026-04-26 12:39
Airport Brussels Airport (EBBR)

Arrival

Time 2026-04-26 13:28
Airport Zürich Airport (LSZH)
Time Latitude Longitude Altitude Speed Heading
2026-04-26 11:58 50.90371 4.48486 118 ft 0 kts 155°
2026-04-26 12:23 50.90391 4.48472 121 ft 4 kts 154°
2026-04-26 12:23 50.90412 4.48451 121 ft 4 kts 118°
2026-04-26 12:23 50.90415 4.48433 119 ft 0 kts 65°
2026-04-26 12:32 50.90467 4.48602 119 ft 12 kts 48°
2026-04-26 12:33 50.90533 4.48691 119 ft 13 kts 57°
2026-04-26 12:33 50.90572 4.48825 117 ft 14 kts 65°
2026-04-26 12:33 50.90614 4.48968 117 ft 13 kts 65°
2026-04-26 12:33 50.90649 4.49088 120 ft 10 kts 66°
2026-04-26 12:34 50.90615 4.49158 121 ft 8 kts 158°
2026-04-26 12:34 50.90567 4.49191 120 ft 8 kts 155°
2026-04-26 12:34 50.90489 4.49245 123 ft 16 kts 156°
2026-04-26 12:34 50.90407 4.49306 123 ft 11 kts 154°
2026-04-26 12:35 50.90348 4.49362 123 ft 9 kts 123°
2026-04-26 12:35 50.90370 4.49467 122 ft 11 kts 64°
2026-04-26 12:35 50.90335 4.49541 125 ft 10 kts 184°
2026-04-26 12:35 50.90265 4.49515 124 ft 10 kts 194°
2026-04-26 12:36 50.90173 4.49475 129 ft 16 kts 196°
2026-04-26 12:36 50.90066 4.49435 129 ft 16 kts 193°
2026-04-26 12:36 50.89949 4.49384 134 ft 20 kts 195°
2026-04-26 12:36 50.89803 4.49327 143 ft 23 kts 194°
2026-04-26 12:37 50.89648 4.49263 152 ft 23 kts 195°
2026-04-26 12:37 50.89532 4.49172 159 ft 18 kts 196°
2026-04-26 12:37 50.89409 4.49127 164 ft 19 kts 193°
2026-04-26 12:37 50.89271 4.49069 170 ft 16 kts 194°
2026-04-26 12:38 50.89181 4.49032 176 ft 14 kts 194°
2026-04-26 12:38 50.89149 4.49103 176 ft 7 kts 67°
2026-04-26 12:38 50.89159 4.49141 176 ft 8 kts 68°
2026-04-26 12:38 50.89230 4.49456 176 ft 68 kts 70°
2026-04-26 12:39 50.89483 4.50545 176 ft 139 kts 70°
2026-04-26 12:39 50.89841 4.52098 727 ft 147 kts 68°
2026-04-26 12:39 50.90263 4.53575 1483 ft 147 kts 62°
2026-04-26 12:39 50.90727 4.55025 2187 ft 157 kts 61°
2026-04-26 12:40 50.91265 4.56673 2738 ft 180 kts 62°
2026-04-26 12:40 50.91873 4.58539 3203 ft 202 kts 61°
2026-04-26 12:40 50.92562 4.60651 3663 ft 228 kts 62°
2026-04-26 12:40 50.93327 4.63005 4232 ft 252 kts 62°
2026-04-26 12:41 50.94010 4.65641 5078 ft 264 kts 71°
2026-04-26 12:41 50.94585 4.68456 5914 ft 273 kts 72°
2026-04-26 12:41 50.95137 4.71346 6203 ft 274 kts 73°
2026-04-26 12:41 50.95436 4.74327 6294 ft 275 kts 90°
2026-04-26 12:42 50.95078 4.77315 6602 ft 280 kts 111°
2026-04-26 12:42 50.94117 4.79998 7654 ft 284 kts 128°
2026-04-26 12:42 50.92699 4.82165 8597 ft 290 kts 140°
2026-04-26 12:42 50.91136 4.84232 9600 ft 295 kts 140°
2026-04-26 12:43 50.89492 4.86196 10559 ft 299 kts 149°
2026-04-26 12:43 50.87588 4.87643 11202 ft 314 kts 161°
2026-04-26 12:43 50.85386 4.88422 11646 ft 333 kts 175°
2026-04-26 12:43 50.83048 4.88753 12400 ft 341 kts 176°
2026-04-26 12:44 50.80671 4.89108 13235 ft 345 kts 175°
2026-04-26 12:44 50.78259 4.89484 14082 ft 350 kts 175°
2026-04-26 12:44 50.75818 4.89875 14812 ft 355 kts 175°
2026-04-26 12:44 50.73399 4.90752 15549 ft 361 kts 158°
2026-04-26 12:45 50.71212 4.92745 16280 ft 366 kts 146°
2026-04-26 12:45 50.69101 4.95007 17033 ft 370 kts 146°
2026-04-26 12:45 50.66969 4.97327 17756 ft 374 kts 146°
2026-04-26 12:45 50.64819 4.99676 18477 ft 378 kts 146°
2026-04-26 12:46 50.62646 5.02042 19102 ft 383 kts 146°
2026-04-26 12:46 50.60433 5.04439 19718 ft 387 kts 146°
2026-04-26 12:46 50.58200 5.06847 20334 ft 391 kts 146°
2026-04-26 12:46 50.55944 5.09273 20949 ft 395 kts 146°
2026-04-26 12:47 50.53659 5.11720 21575 ft 399 kts 146°
2026-04-26 12:47 50.51377 5.14161 22162 ft 404 kts 146°
2026-04-26 12:47 50.49007 5.16697 22751 ft 409 kts 146°
2026-04-26 12:47 50.46646 5.19223 23328 ft 413 kts 146°
2026-04-26 12:48 50.44280 5.21751 23894 ft 418 kts 146°
2026-04-26 12:48 50.41861 5.24331 24379 ft 422 kts 146°
2026-04-26 12:48 50.39422 5.26930 24869 ft 426 kts 146°
2026-04-26 12:48 50.36966 5.29545 25360 ft 429 kts 146°
2026-04-26 12:49 50.34489 5.32177 25848 ft 432 kts 146°
2026-04-26 12:49 50.31990 5.34827 26323 ft 435 kts 146°
2026-04-26 12:49 50.29479 5.37491 26769 ft 438 kts 146°
2026-04-26 12:49 50.26946 5.40178 27237 ft 441 kts 146°
2026-04-26 12:50 50.24398 5.42880 27703 ft 444 kts 146°
2026-04-26 12:50 50.21831 5.45596 28164 ft 447 kts 146°
2026-04-26 12:50 50.19250 5.48317 28621 ft 450 kts 147°
2026-04-26 12:50 50.16646 5.51056 29090 ft 453 kts 146°
2026-04-26 12:51 50.14021 5.53809 29505 ft 456 kts 146°
2026-04-26 12:51 50.11376 5.56576 29929 ft 460 kts 146°
2026-04-26 12:51 50.08711 5.59363 30355 ft 463 kts 146°
2026-04-26 12:51 50.06033 5.62165 30725 ft 465 kts 146°
2026-04-26 12:52 50.03340 5.64989 31081 ft 468 kts 146°
2026-04-26 12:52 50.00628 5.67833 31435 ft 470 kts 146°
2026-04-26 12:52 49.97916 5.70670 31792 ft 472 kts 147°
2026-04-26 12:52 49.95181 5.73523 32203 ft 473 kts 147°
2026-04-26 12:53 49.92453 5.76361 32714 ft 471 kts 147°
2026-04-26 12:53 49.89731 5.79191 33137 ft 470 kts 147°
2026-04-26 12:53 49.87021 5.82002 33244 ft 465 kts 147°
2026-04-26 12:53 49.84409 5.84708 33258 ft 449 kts 147°
2026-04-26 12:54 49.81837 5.87367 33246 ft 440 kts 147°
2026-04-26 12:54 49.76785 5.92580 33262 ft 434 kts 147°
2026-04-26 12:55 49.71770 5.97749 33270 ft 432 kts 147°
2026-04-26 12:55 49.66753 6.02907 33272 ft 432 kts 147°
2026-04-26 12:56 49.61772 6.08002 33273 ft 432 kts 147°
2026-04-26 12:56 49.56755 6.13116 33257 ft 432 kts 147°
2026-04-26 12:57 49.51741 6.18238 33255 ft 433 kts 147°
2026-04-26 12:57 49.46720 6.23357 33250 ft 433 kts 147°
2026-04-26 12:58 49.39180 6.30997 33264 ft 432 kts 148°
2026-04-26 12:58 49.34167 6.36065 33248 ft 431 kts 148°
2026-04-26 12:59 49.29153 6.41120 33230 ft 431 kts 148°
2026-04-26 12:59 49.24146 6.46157 33223 ft 431 kts 148°
2026-04-26 13:00 49.19131 6.51194 33224 ft 431 kts 148°
2026-04-26 13:00 49.14140 6.56191 33222 ft 431 kts 148°
2026-04-26 13:01 49.09110 6.61210 33202 ft 431 kts 148°
2026-04-26 13:01 49.04088 6.66205 33232 ft 430 kts 148°
2026-04-26 13:02 48.99069 6.71091 33239 ft 428 kts 153°
2026-04-26 13:02 48.93619 6.74616 33238 ft 425 kts 161°
2026-04-26 13:03 48.88107 6.77884 33218 ft 425 kts 161°
2026-04-26 13:03 48.82600 6.81147 33209 ft 425 kts 161°
2026-04-26 13:04 48.77087 6.84401 33212 ft 425 kts 161°
2026-04-26 13:04 48.71569 6.87652 33212 ft 425 kts 161°
2026-04-26 13:05 48.66054 6.90894 33211 ft 425 kts 161°
2026-04-26 13:05 48.60531 6.94119 33207 ft 425 kts 161°
2026-04-26 13:06 48.55015 6.97345 33231 ft 425 kts 161°
2026-04-26 13:06 48.49515 7.00573 33233 ft 423 kts 161°
2026-04-26 13:07 48.44063 7.03749 33227 ft 423 kts 161°
2026-04-26 13:07 48.38567 7.06931 32982 ft 423 kts 161°
2026-04-26 13:08 48.35812 7.08528 32713 ft 424 kts 161°
2026-04-26 13:08 48.33063 7.10125 32454 ft 425 kts 161°
2026-04-26 13:08 48.30300 7.11727 32200 ft 424 kts 161°
2026-04-26 13:08 48.27550 7.13320 31937 ft 422 kts 161°
2026-04-26 13:09 48.24818 7.14899 31477 ft 419 kts 161°
2026-04-26 13:09 48.22109 7.16465 30985 ft 416 kts 161°
2026-04-26 13:09 48.19413 7.18021 30503 ft 414 kts 161°
2026-04-26 13:09 48.16724 7.19567 29988 ft 412 kts 161°
2026-04-26 13:10 48.14056 7.21098 29531 ft 408 kts 161°
2026-04-26 13:10 48.11448 7.22596 29078 ft 405 kts 161°
2026-04-26 13:10 48.08828 7.24105 28639 ft 402 kts 161°
2026-04-26 13:10 48.06228 7.25595 28207 ft 399 kts 162°
2026-04-26 13:11 48.03643 7.27072 27761 ft 396 kts 162°
2026-04-26 13:11 48.01075 7.28535 27325 ft 393 kts 162°
2026-04-26 13:11 47.98528 7.29981 26861 ft 391 kts 162°
2026-04-26 13:11 47.95997 7.31421 26421 ft 388 kts 162°
2026-04-26 13:12 47.93479 7.32855 25971 ft 386 kts 162°
2026-04-26 13:12 47.90976 7.34283 25502 ft 384 kts 162°
2026-04-26 13:12 47.88485 7.35701 25034 ft 383 kts 162°
2026-04-26 13:13 47.83871 7.38314 24133 ft 381 kts 162°
2026-04-26 13:13 47.81608 7.39596 23666 ft 380 kts 162°
2026-04-26 13:13 47.79148 7.40989 23153 ft 378 kts 162°
2026-04-26 13:13 47.76704 7.42374 22681 ft 374 kts 162°
2026-04-26 13:14 47.74317 7.43723 22219 ft 371 kts 162°
2026-04-26 13:14 47.71879 7.45100 21762 ft 368 kts 162°
2026-04-26 13:14 47.69514 7.46436 21558 ft 358 kts 162°
2026-04-26 13:14 47.67192 7.47779 20921 ft 363 kts 158°
2026-04-26 13:15 47.65031 7.49738 20423 ft 366 kts 143°
2026-04-26 13:15 47.63249 7.52422 19976 ft 366 kts 128°
2026-04-26 13:15 47.61981 7.55631 19550 ft 366 kts 113°
2026-04-26 13:15 47.61128 7.59179 19108 ft 365 kts 109°
2026-04-26 13:16 47.60303 7.62733 18668 ft 364 kts 109°
2026-04-26 13:16 47.59474 7.66277 18202 ft 363 kts 109°
2026-04-26 13:16 47.58644 7.69795 17760 ft 361 kts 109°
2026-04-26 13:16 47.57816 7.73293 17324 ft 358 kts 109°
2026-04-26 13:17 47.56183 7.80210 16485 ft 354 kts 109°
2026-04-26 13:17 47.55374 7.83642 16072 ft 351 kts 109°
2026-04-26 13:18 47.53770 7.90441 15255 ft 348 kts 109°
2026-04-26 13:18 47.52968 7.93818 14843 ft 346 kts 109°
2026-04-26 13:18 47.51369 8.00507 14023 ft 343 kts 110°
2026-04-26 13:19 47.50571 8.03828 13582 ft 342 kts 109°
2026-04-26 13:19 47.49774 8.07137 13135 ft 341 kts 110°
2026-04-26 13:19 47.48991 8.10383 12704 ft 339 kts 110°
2026-04-26 13:19 47.48203 8.13659 12270 ft 337 kts 109°
2026-04-26 13:20 47.47423 8.16908 11842 ft 334 kts 109°
2026-04-26 13:20 47.46653 8.20131 11420 ft 331 kts 109°
2026-04-26 13:20 47.46267 8.23451 10999 ft 328 kts 88°
2026-04-26 13:20 47.46786 8.26701 10588 ft 325 kts 64°
2026-04-26 13:21 47.48135 8.29301 10357 ft 315 kts 39°
2026-04-26 13:21 47.49369 8.30430 10274 ft 305 kts 22°
2026-04-26 13:21 47.52050 8.30897 10042 ft 291 kts 348°
2026-04-26 13:21 47.53897 8.29742 9601 ft 290 kts 324°
2026-04-26 13:22 47.55470 8.27874 9161 ft 290 kts 319°
2026-04-26 13:22 47.56989 8.25930 8725 ft 289 kts 319°
2026-04-26 13:22 47.58498 8.23968 8295 ft 288 kts 319°
2026-04-26 13:22 47.60160 8.22375 7864 ft 285 kts 341°
2026-04-26 13:23 47.62099 8.22023 7439 ft 282 kts
2026-04-26 13:23 47.63911 8.23011 7025 ft 278 kts 36°
2026-04-26 13:23 47.65190 8.25104 6615 ft 274 kts 63°
2026-04-26 13:23 47.65648 8.27816 6176 ft 273 kts 91°
2026-04-26 13:24 47.65307 8.30540 5884 ft 267 kts 111°
2026-04-26 13:24 47.64172 8.32589 5733 ft 254 kts 148°
2026-04-26 13:24 47.62654 8.33754 5607 ft 238 kts 147°
2026-04-26 13:24 47.61394 8.35342 4978 ft 244 kts 132°
2026-04-26 13:25 47.60158 8.37190 4243 ft 256 kts 134°
2026-04-26 13:25 47.58899 8.38956 4043 ft 241 kts 134°
2026-04-26 13:25 47.57714 8.40578 3927 ft 226 kts 135°
2026-04-26 13:25 47.56597 8.42111 3664 ft 211 kts 135°
2026-04-26 13:26 47.55555 8.43541 3410 ft 203 kts 133°
2026-04-26 13:26 47.54532 8.44946 3156 ft 198 kts 134°
2026-04-26 13:26 47.53527 8.46323 2894 ft 192 kts 135°
2026-04-26 13:26 47.52563 8.47645 2642 ft 187 kts 136°
2026-04-26 13:27 47.51628 8.48926 2417 ft 177 kts 135°
2026-04-26 13:27 47.50758 8.50116 2158 ft 164 kts 134°
2026-04-26 13:27 47.49976 8.51184 1933 ft 143 kts 135°
2026-04-26 13:27 47.49279 8.52137 1744 ft 131 kts 133°
2026-04-26 13:28 47.48623 8.53032 1534 ft 127 kts 131°
2026-04-26 13:28 47.47991 8.53905 1410 ft 125 kts 131°
2026-04-26 13:28 47.47427 8.54677 1395 ft 88 kts 137°
2026-04-26 13:28 47.47097 8.55125 1388 ft 48 kts 137°
2026-04-26 13:29 47.46866 8.55441 1395 ft 42 kts 137°
2026-04-26 13:29 47.46744 8.55591 1396 ft 31 kts 149°
2026-04-26 13:29 47.46555 8.55692 1396 ft 14 kts 167°
2026-04-26 13:29 47.46469 8.55721 1397 ft 12 kts 167°
2026-04-26 13:30 47.46413 8.55739 1401 ft 6 kts 167°
2026-04-26 13:30 47.46379 8.55765 1405 ft 5 kts 142°
2026-04-26 13:30 47.46354 8.55795 1404 ft 4 kts 140°
2026-04-26 13:30 47.46334 8.55823 1400 ft 6 kts 137°
2026-04-26 13:31 47.46275 8.55905 1406 ft 17 kts 136°
2026-04-26 13:31 47.46161 8.55999 1406 ft 16 kts 184°
2026-04-26 13:31 47.46076 8.55986 1407 ft 11 kts 186°
2026-04-26 13:31 47.45994 8.55972 1406 ft 13 kts 186°
2026-04-26 13:32 47.45909 8.55937 1407 ft 13 kts 200°
2026-04-26 13:32 47.45847 8.55905 1412 ft 7 kts 199°
2026-04-26 13:32 47.45835 8.55899 1410 ft 0 kts 199°
2026-04-26 13:37 47.45834 8.55898 1410 ft 1 kts 199°
2026-04-26 13:37 47.45786 8.55877 1410 ft 14 kts 190°
2026-04-26 13:37 47.45707 8.55865 1409 ft 10 kts 186°
2026-04-26 13:38 47.45652 8.55856 1410 ft 8 kts 186°
2026-04-26 13:38 47.45611 8.55839 1412 ft 4 kts 180°
2026-04-26 13:38 47.45581 8.55841 1414 ft 5 kts 177°
2026-04-26 13:38 47.45537 8.55844 1412 ft 7 kts 178°
2026-04-26 13:39 47.45507 8.55786 1407 ft 8 kts 269°
2026-04-26 13:39 47.45504 8.55701 1407 ft 8 kts 224°
2026-04-26 13:39 47.45460 8.55694 1407 ft 5 kts 182°
2026-04-26 13:39 47.45428 8.55691 1407 ft 0 kts 187°
2026-04-26 13:48 47.45432 8.55691 1408 ft 0 kts 186°